THY3GQ LTAC-LTFM

Flight info

Callsign THY3GQ
Flight time 0h 43m
Altitude 28000
Route YAVRU A4 ERSEN
Aircraft A321/M-SDE3FGHIRWY/LB1

Departure

Time 2026-05-06 07:37
Airport Esenboğa International Airport (LTAC)

Arrival

Time 2026-05-06 08:20
Airport İstanbul Airport (LTFM)
Time Latitude Longitude Altitude Speed Heading
2026-05-06 07:23 40.11585 32.99069 3127 ft 0 kts 144°
2026-05-06 07:30 40.11592 32.99063 3127 ft 2 kts 144°
2026-05-06 07:30 40.11604 32.99052 3127 ft 2 kts 145°
2026-05-06 07:31 40.11616 32.99041 3126 ft 2 kts 144°
2026-05-06 07:31 40.11628 32.99031 3126 ft 2 kts 173°
2026-05-06 07:31 40.11643 32.99034 3126 ft 2 kts 214°
2026-05-06 07:31 40.11649 32.99041 3126 ft 0 kts 238°
2026-05-06 07:32 40.11652 32.99048 3127 ft 0 kts 235°
2026-05-06 07:33 40.11649 32.99041 3126 ft 2 kts 235°
2026-05-06 07:33 40.11634 32.99012 3126 ft 4 kts 242°
2026-05-06 07:33 40.11626 32.98969 3125 ft 5 kts 266°
2026-05-06 07:34 40.11640 32.98919 3124 ft 6 kts 306°
2026-05-06 07:34 40.11652 32.98864 3123 ft 6 kts 249°
2026-05-06 07:34 40.11618 32.98822 3122 ft 7 kts 217°
2026-05-06 07:34 40.11566 32.98774 3121 ft 11 kts 216°
2026-05-06 07:35 40.11490 32.98701 3120 ft 15 kts 216°
2026-05-06 07:35 40.11392 32.98609 3118 ft 18 kts 220°
2026-05-06 07:35 40.11355 32.98460 3115 ft 18 kts 284°
2026-05-06 07:35 40.11435 32.98363 3113 ft 16 kts
2026-05-06 07:36 40.11567 32.98470 3115 ft 44 kts 36°
2026-05-06 07:36 40.11999 32.98881 3124 ft 107 kts 37°
2026-05-06 07:36 40.12747 32.99595 3130 ft 160 kts 36°
2026-05-06 07:36 40.13716 33.00486 3524 ft 173 kts 35°
2026-05-06 07:37 40.14685 33.01400 4112 ft 175 kts 37°
2026-05-06 07:37 40.15642 33.02370 4714 ft 179 kts 38°
2026-05-06 07:37 40.16625 33.03367 5205 ft 182 kts 37°
2026-05-06 07:37 40.17668 33.04403 5516 ft 192 kts 38°
2026-05-06 07:38 40.18743 33.05510 5784 ft 206 kts 38°
2026-05-06 07:38 40.19930 33.06681 6059 ft 220 kts 31°
2026-05-06 07:38 40.21415 33.07270 6285 ft 237 kts
2026-05-06 07:38 40.23078 33.06804 6520 ft 256 kts 332°
2026-05-06 07:39 40.24439 33.05225 6851 ft 272 kts 308°
2026-05-06 07:39 40.25601 33.03225 7420 ft 280 kts 307°
2026-05-06 07:39 40.26781 33.01218 8103 ft 282 kts 308°
2026-05-06 07:39 40.28003 32.99175 8782 ft 286 kts 308°
2026-05-06 07:40 40.29246 32.97117 9458 ft 290 kts 308°
2026-05-06 07:40 40.30485 32.95072 10120 ft 293 kts 308°
2026-05-06 07:40 40.31773 32.92947 10601 ft 304 kts 308°
2026-05-06 07:40 40.33114 32.90738 10907 ft 320 kts 308°
2026-05-06 07:41 40.34391 32.88266 11352 ft 331 kts 298°
2026-05-06 07:41 40.35295 32.85482 12031 ft 333 kts 288°
2026-05-06 07:41 40.35889 32.82578 12724 ft 334 kts 284°
2026-05-06 07:41 40.36425 32.79623 13358 ft 337 kts 284°
2026-05-06 07:42 40.36967 32.76611 13982 ft 340 kts 285°
2026-05-06 07:42 40.37513 32.73630 14595 ft 342 kts 285°
2026-05-06 07:42 40.38074 32.70600 15190 ft 345 kts 285°
2026-05-06 07:42 40.38644 32.67535 15779 ft 347 kts 286°
2026-05-06 07:43 40.39213 32.64478 16359 ft 350 kts 286°
2026-05-06 07:43 40.39793 32.61368 16935 ft 352 kts 286°
2026-05-06 07:43 40.40372 32.58243 17510 ft 354 kts 286°
2026-05-06 07:43 40.40951 32.55121 18056 ft 356 kts 286°
2026-05-06 07:44 40.41535 32.51962 18584 ft 359 kts 287°
2026-05-06 07:44 40.42123 32.48776 19126 ft 361 kts 287°
2026-05-06 07:44 40.42707 32.45606 19645 ft 363 kts 287°
2026-05-06 07:44 40.43303 32.42374 20150 ft 365 kts 287°
2026-05-06 07:45 40.43894 32.39153 20644 ft 367 kts 287°
2026-05-06 07:45 40.44487 32.35912 21135 ft 369 kts 287°
2026-05-06 07:45 40.45092 32.32603 21630 ft 371 kts 286°
2026-05-06 07:45 40.45690 32.29316 22110 ft 373 kts 287°
2026-05-06 07:46 40.46288 32.26043 22563 ft 375 kts 287°
2026-05-06 07:46 40.46899 32.22738 22995 ft 377 kts 288°
2026-05-06 07:46 40.47633 32.19426 23416 ft 378 kts 291°
2026-05-06 07:46 40.48521 32.16162 23847 ft 379 kts 294°
2026-05-06 07:47 40.49463 32.12969 24258 ft 381 kts 294°
2026-05-06 07:47 40.50433 32.09711 24660 ft 383 kts 294°
2026-05-06 07:47 40.51397 32.06472 25056 ft 385 kts 294°
2026-05-06 07:47 40.52369 32.03199 25442 ft 387 kts 294°
2026-05-06 07:48 40.53343 31.99903 25817 ft 389 kts 294°
2026-05-06 07:48 40.54316 31.96603 26185 ft 390 kts 294°
2026-05-06 07:48 40.55294 31.93286 26556 ft 392 kts 294°
2026-05-06 07:48 40.56287 31.89911 26904 ft 394 kts 294°
2026-05-06 07:49 40.57266 31.86579 27008 ft 395 kts 294°
2026-05-06 07:49 40.58232 31.83216 27015 ft 395 kts 293°
2026-05-06 07:49 40.59114 31.79774 27017 ft 396 kts 292°
2026-05-06 07:49 40.59971 31.76332 27023 ft 396 kts 291°
2026-05-06 07:50 40.60812 31.72933 27030 ft 396 kts 291°
2026-05-06 07:50 40.61663 31.69496 27027 ft 396 kts 291°
2026-05-06 07:50 40.62512 31.66060 27027 ft 396 kts 291°
2026-05-06 07:50 40.63366 31.62597 27032 ft 396 kts 291°
2026-05-06 07:51 40.64209 31.59177 27031 ft 396 kts 291°
2026-05-06 07:51 40.65054 31.55739 27032 ft 396 kts 291°
2026-05-06 07:51 40.65900 31.52298 27031 ft 397 kts 291°
2026-05-06 07:51 40.66752 31.48828 27031 ft 397 kts 291°
2026-05-06 07:52 40.67593 31.45402 27033 ft 397 kts 291°
2026-05-06 07:52 40.68437 31.41953 27038 ft 397 kts 291°
2026-05-06 07:52 40.69280 31.38504 27034 ft 396 kts 291°
2026-05-06 07:52 40.70129 31.35024 27044 ft 397 kts 291°
2026-05-06 07:53 40.70964 31.31598 27043 ft 397 kts 291°
2026-05-06 07:53 40.71812 31.28111 27043 ft 398 kts 291°
2026-05-06 07:53 40.72644 31.24691 27051 ft 397 kts 291°
2026-05-06 07:53 40.73490 31.21202 27053 ft 397 kts 291°
2026-05-06 07:54 40.74321 31.17774 27057 ft 397 kts 291°
2026-05-06 07:54 40.75168 31.14271 27056 ft 397 kts 291°
2026-05-06 07:54 40.75995 31.10851 27056 ft 397 kts 291°
2026-05-06 07:54 40.76836 31.07363 27057 ft 397 kts 291°
2026-05-06 07:55 40.77666 31.03919 27060 ft 397 kts 291°
2026-05-06 07:55 40.78499 31.00449 27063 ft 397 kts 291°
2026-05-06 07:55 40.79327 30.97002 27067 ft 397 kts 291°
2026-05-06 07:55 40.80156 30.93543 27067 ft 398 kts 290°
2026-05-06 07:56 40.80983 30.90090 27067 ft 398 kts 290°
2026-05-06 07:56 40.81824 30.86572 27069 ft 398 kts 290°
2026-05-06 07:56 40.82659 30.83071 27121 ft 404 kts 290°
2026-05-06 07:56 40.83506 30.79526 27095 ft 415 kts 290°
2026-05-06 07:57 40.84380 30.75849 27081 ft 419 kts 290°
2026-05-06 07:57 40.85235 30.72241 27078 ft 420 kts 290°
2026-05-06 07:57 40.85995 30.68570 27065 ft 410 kts 286°
2026-05-06 07:57 40.86502 30.64882 26945 ft 405 kts 281°
2026-05-06 07:58 40.86763 30.61218 26671 ft 403 kts 277°
2026-05-06 07:58 40.86903 30.57513 26359 ft 402 kts 276°
2026-05-06 07:58 40.87022 30.53840 25865 ft 401 kts 276°
2026-05-06 07:58 40.87136 30.50215 25274 ft 399 kts 276°
2026-05-06 07:59 40.87253 30.46544 24627 ft 399 kts 276°
2026-05-06 07:59 40.87369 30.42944 23987 ft 398 kts 275°
2026-05-06 07:59 40.87487 30.39284 23399 ft 396 kts 275°
2026-05-06 07:59 40.87602 30.35692 22885 ft 393 kts 275°
2026-05-06 08:00 40.87715 30.32101 22376 ft 389 kts 275°
2026-05-06 08:00 40.87826 30.28582 21899 ft 386 kts 275°
2026-05-06 08:00 40.87937 30.25043 21410 ft 383 kts 275°
2026-05-06 08:00 40.88045 30.21561 20926 ft 381 kts 275°
2026-05-06 08:01 40.88153 30.18060 20454 ft 378 kts 275°
2026-05-06 08:01 40.88257 30.14635 19988 ft 375 kts 275°
2026-05-06 08:01 40.88360 30.11235 19525 ft 373 kts 274°
2026-05-06 08:01 40.88463 30.07799 19049 ft 371 kts 274°
2026-05-06 08:02 40.88564 30.04393 18582 ft 369 kts 274°
2026-05-06 08:02 40.88663 30.01014 18115 ft 367 kts 275°
2026-05-06 08:02 40.88759 29.97665 17645 ft 366 kts 275°
2026-05-06 08:02 40.88855 29.94314 17194 ft 363 kts 275°
2026-05-06 08:03 40.88948 29.91042 16761 ft 361 kts 275°
2026-05-06 08:03 40.89042 29.87730 16297 ft 359 kts 275°
2026-05-06 08:03 40.89134 29.84444 15846 ft 357 kts 275°
2026-05-06 08:03 40.89223 29.81201 15421 ft 355 kts 275°
2026-05-06 08:04 40.89312 29.77937 14964 ft 353 kts 275°
2026-05-06 08:04 40.89398 29.74753 14525 ft 350 kts 275°
2026-05-06 08:04 40.89484 29.71542 14099 ft 348 kts 276°
2026-05-06 08:04 40.89568 29.68374 13652 ft 346 kts 276°
2026-05-06 08:05 40.89653 29.65179 13197 ft 345 kts 276°
2026-05-06 08:05 40.89735 29.62053 12749 ft 343 kts 276°
2026-05-06 08:05 40.89816 29.58924 12312 ft 341 kts 276°
2026-05-06 08:05 40.89897 29.55771 11858 ft 340 kts 276°
2026-05-06 08:06 40.89975 29.52658 11415 ft 338 kts 276°
2026-05-06 08:06 40.90052 29.49592 10982 ft 336 kts 276°
2026-05-06 08:06 40.90128 29.46523 10545 ft 334 kts 275°
2026-05-06 08:06 40.90202 29.43495 10213 ft 328 kts 275°
2026-05-06 08:07 40.90270 29.40552 10071 ft 306 kts 276°
2026-05-06 08:07 40.90329 29.37861 9958 ft 285 kts 276°
2026-05-06 08:07 40.90389 29.35269 9776 ft 281 kts 276°
2026-05-06 08:07 40.90454 29.32661 9391 ft 282 kts 275°
2026-05-06 08:08 40.90517 29.30076 9027 ft 282 kts 275°
2026-05-06 08:08 40.90579 29.27508 8672 ft 281 kts 275°
2026-05-06 08:08 40.90639 29.24916 8316 ft 281 kts 275°
2026-05-06 08:08 40.90698 29.22340 7963 ft 280 kts 275°
2026-05-06 08:09 40.90754 29.19778 7611 ft 280 kts 275°
2026-05-06 08:09 40.90810 29.17233 7261 ft 279 kts 275°
2026-05-06 08:09 40.90867 29.14652 6907 ft 278 kts 275°
2026-05-06 08:09 40.90922 29.12115 6555 ft 278 kts 275°
2026-05-06 08:10 40.90977 29.09583 6204 ft 277 kts 275°
2026-05-06 08:10 40.91032 29.07037 5870 ft 275 kts 275°
2026-05-06 08:10 40.91083 29.04552 5747 ft 265 kts 275°
2026-05-06 08:10 40.91130 29.02187 5667 ft 254 kts 275°
2026-05-06 08:11 40.91242 28.99893 5509 ft 246 kts 279°
2026-05-06 08:11 40.91433 28.97659 5274 ft 242 kts 279°
2026-05-06 08:11 40.91629 28.95495 5045 ft 238 kts 279°
2026-05-06 08:11 40.91826 28.93311 4708 ft 239 kts 279°
2026-05-06 08:12 40.92021 28.91134 4430 ft 237 kts 279°
2026-05-06 08:12 40.92211 28.88976 4185 ft 234 kts 278°
2026-05-06 08:12 40.92393 28.86895 4071 ft 228 kts 278°
2026-05-06 08:12 40.92577 28.84776 4033 ft 229 kts 278°
2026-05-06 08:13 40.92758 28.82677 4017 ft 229 kts 278°
2026-05-06 08:13 40.92973 28.80615 4005 ft 228 kts 287°
2026-05-06 08:13 40.93808 28.78870 3992 ft 226 kts 323°
2026-05-06 08:13 40.95153 28.77816 4011 ft 226 kts 331°
2026-05-06 08:14 40.96540 28.76798 4008 ft 225 kts 333°
2026-05-06 08:14 40.98007 28.76167 4004 ft 225 kts 352°
2026-05-06 08:14 40.99551 28.76054 3997 ft 214 kts 359°
2026-05-06 08:14 41.01020 28.76074 3998 ft 210 kts 359°
2026-05-06 08:15 41.02459 28.76094 4068 ft 200 kts 359°
2026-05-06 08:15 41.03789 28.76098 4091 ft 180 kts 359°
2026-05-06 08:15 41.05015 28.76088 4105 ft 179 kts 358°
2026-05-06 08:15 41.06276 28.76068 4117 ft 181 kts 358°
2026-05-06 08:16 41.07532 28.76044 3948 ft 182 kts 358°
2026-05-06 08:16 41.08802 28.76018 3704 ft 182 kts 358°
2026-05-06 08:16 41.10067 28.75991 3462 ft 182 kts 358°
2026-05-06 08:16 41.11345 28.75964 3219 ft 183 kts 358°
2026-05-06 08:17 41.12606 28.75937 2978 ft 182 kts 358°
2026-05-06 08:17 41.13837 28.75913 2756 ft 169 kts 358°
2026-05-06 08:17 41.14977 28.75890 2522 ft 161 kts 358°
2026-05-06 08:17 41.16087 28.75867 2316 ft 161 kts 358°
2026-05-06 08:18 41.17213 28.75845 2103 ft 162 kts 358°
2026-05-06 08:18 41.18311 28.75823 1878 ft 153 kts 358°
2026-05-06 08:18 41.19350 28.75804 1665 ft 147 kts 358°
2026-05-06 08:18 41.20358 28.75784 1486 ft 146 kts 359°
2026-05-06 08:19 41.21375 28.75764 1300 ft 145 kts 358°
2026-05-06 08:19 41.22387 28.75742 1109 ft 145 kts 359°
2026-05-06 08:19 41.23413 28.75720 911 ft 145 kts 359°
2026-05-06 08:19 41.24426 28.75704 720 ft 145 kts 359°
2026-05-06 08:20 41.25443 28.75684 529 ft 146 kts 359°
2026-05-06 08:20 41.26458 28.75666 351 ft 145 kts 359°
2026-05-06 08:20 41.27385 28.75646 333 ft 110 kts 360°
2026-05-06 08:20 41.27942 28.75629 333 ft 41 kts 345°
2026-05-06 08:21 41.28097 28.75531 333 ft 11 kts 330°
2026-05-06 08:21 41.28157 28.75461 333 ft 12 kts 292°
2026-05-06 08:21 41.28134 28.75360 333 ft 12 kts 217°
2026-05-06 08:21 41.28049 28.75349 333 ft 12 kts 178°
2026-05-06 08:22 41.27958 28.75352 333 ft 13 kts 179°
2026-05-06 08:22 41.27864 28.75353 333 ft 13 kts 179°
2026-05-06 08:22 41.27768 28.75355 333 ft 14 kts 179°
2026-05-06 08:22 41.27667 28.75357 333 ft 14 kts 179°
2026-05-06 08:23 41.27613 28.75331 333 ft 8 kts 248°
2026-05-06 08:23 41.27609 28.75247 333 ft 9 kts 269°
2026-05-06 08:23 41.27608 28.75167 333 ft 4 kts 268°
2026-05-06 08:23 41.27605 28.75142 333 ft 2 kts 229°
2026-05-06 08:24 41.27584 28.75137 333 ft 3 kts 180°
2026-05-06 08:24 41.27562 28.75136 333 ft 3 kts 179°
2026-05-06 08:24 41.27557 28.75136 333 ft 0 kts 179°